Showing default

CRYOSAT 2, 36508

Orbit data source: Space-Track

CRYOSAT 2, 36508 is a payload satellite owned by ESA (ESA) in LEO that was launched on Thu, 08 Apr 2010 UTC via a DNEPR launch vehicle from the Tyuratam Missile And Space Complex (TTMTR). Payload-class satellites include a variety of spacecraft equipped with specific instruments for various scientific and technological missions. These include communications satellites like Starlink; space stations such as the ISS; scientific satellites like the Hubble; Earth observation satellites from companies like Planet Labs, Umbra, and HawkEye 360; GPS; miniature CubeSats for education and research; and military/defense satellites.

Loading next visibility...
Identifier
36508, 2010-013A
Orbit
LEO
Country
Flag of ESAESA
Related business
Manufacturer
EADS Astrium/DF
Mission
Operational Civil Science
Bus & Motor
FLEXBUS, AOCS 2X40MN
Mass
720 kg wet, ~684 kg dry
Launch date (UTC)
2010-04-08 (16 years ago)
Launch vehicle
DNEPR
Launch site
Tyuratam Missile And Space Complex (TTMTR)
Object type
Payload
Rocket body
Debris
Shape & HBR
Hex Cyl, 2.5 m
Radar Cross Section
9.653 m², Large (>1 m²)

Expand to show TLE details & history
Last TLE update: 8 hours ago

TLE from 8 hours ago
0 CRYOSAT 2
1 36508U 10013A   26121.28473403  .00000259  00000-0  63623-4 0  9990
2 36508  92.0296 265.9159 0002670  91.2311 268.9202 14.51907714851272
Epoch: 2026-05-01T06:50Z
TLE epoch observation values (Epoch: 2026-05-01T06:50:01.020Z)
Latitude
-0.00002°
Longitude
-55.80754°
Altitude
722.554 km
Speed
7.494 km/s
True Right ascension
17h 43m 39s
True Declination
0° 00' 00"
Sunlit
Object was in full shadow at epoch
Visualization orbit readout
Latitude
Unknown
Longitude
Unknown
Altitude
Unknown
Speed
Unknown
Apparent Right ascension
Unknown
Apparent Declination
Unknown
Sunlit
N/A
Visualization observer readout
Local Sidereal Time
22:40:53
Azimuth
Unknown
Elevation
Unknown
Doppler factor
Unknown
Orbital elements
Apogee altitude
718.233 km
Perigee altitude
714.445 km
Semi-major axis
7,094.476 km
Eccentricity
0.00027
Inclination
92.0296°
RAAN
265.9159°
Arg. of periapsis
91.2311°
True anomaly
268.88961°
Mean anomaly
268.9202°
Eccentric anomaly
268.9049°
Mean motion
3.63214 °/min
Orbital period
99.12 mins
BSTAR
0.000063623
Loading maneuver chart data...
Computing Atmospheric mass density...
Loading historical data...
Loading historical data...
Loading historical data...
Loading historical data...
Loading historical data...
Loading historical data...
Loading historical data...
Other satellites on launch #13 in the year 2010 (2010-04-08 UTC)

Documentation

Showing up to 5 results
|